Home > Weather > Longueuil > Past weeks

Flag for Canada Past Weather in Longueuil, Quebec, Canada — Yesterday and Last 2 Weeks

Now
72 °F

Mild.


Feels Like: 77 °F
Forecast: 60 / 79 °F
Wind: 5 mph from Northwest

Location: Mc Tavish

Current Time: Jul 24, 2016 at 12:39:33 PM

Latest Report: Jul 24, 2016 at 12:00 PM


Visibility: N/A

Pressure: 30.01 "Hg

Humidity: 53%

Dew Point: 54 °F

Location of LongueuilLocation

Past Weather in Longueuil — Graph

°F

Longueuil Temperature Yesterday

Maximum temperature yesterday: 81 °F (at 12:00 PM)
Minimum temperature yesterday: 66 °F (at 1:00 PM)
Average temperature yesterday: 71 °F

High & Low Weather Summary for the Past Weeks

 TemperatureHumidityPressure
High89 °F (Jul 13, 4:00 PM)100% (Jul 10, 5:00 AM)30.18 "Hg (Jul 10, 5:00 AM)
Low57 °F (Jul 11, 2:00 AM)38% (Jul 20, 4:00 PM)29.63 "Hg (Jul 14, 6:00 PM)
Average72 °F68%29.92 "Hg
* Reported Jul 9 11:00 AM — Jul 24 11:00 AM, Longueuil, Weather by CustomWeather, © 2016

Note: Actual official high and low records may vary slightly from our data, if they occured in-between our weather recording intervals... More about our weather records

Advertising

Longueuil Weather History for the Previous 24 Hours

Scroll right to see more
 ConditionsComfort  
Time TempWeatherWind HumidityBarometerVisibility
11:00 AM
Sun, Jul 24
70 °FMild.3 mph55%30.03 "HgN/A
10:00 AM67 °FMild.5 mph58%30.03 "HgN/A
9:00 AM66 °FMild.7 mph63%30.02 "HgN/A
8:00 AM64 °FMild.6 mph66%30.01 "HgN/A
7:00 AM62 °FCool.7 mph68%30.01 "HgN/A
6:00 AM61 °FCool.3 mph72%29.99 "HgN/A
5:00 AM60 °FCool.3 mph73%29.98 "HgN/A
4:00 AM60 °FCool.3 mph75%29.98 "HgN/A
3:00 AM60 °FCool.6 mph76%29.98 "HgN/A
2:00 AM63 °FMild.7 mph70%29.97 "HgN/A
1:00 AM67 °FMild.7 mph75%29.94 "HgN/A
12:00 AM69 °FMild.6 mph76%29.93 "HgN/A
11:00 PM
Sat, Jul 23
67 °FMild.2 mph92%29.90 "HgN/A
10:00 PM70 °FMild.3 mph84%29.89 "HgN/A
9:00 PM70 °FMild.2 mph90%29.86 "HgN/A
8:00 PM71 °FMild.2 mph89%29.84 "HgN/A
7:00 PM70 °FMild.2 mph87%29.83 "HgN/A
6:00 PM69 °FMild.2 mph88%29.83 "HgN/A
5:00 PM69 °FMild.3 mph91%29.83 "HgN/A
4:00 PM67 °FMild.3 mph95%29.83 "HgN/A
3:00 PM67 °FMild.No wind92%29.81 "HgN/A
2:00 PM67 °FMild.5 mph88%29.78 "HgN/A
1:00 PM66 °FMild.9 mph90%29.79 "HgN/A
12:00 PM81 °FWarm.5 mph64%29.75 "HgN/A
Weather by CustomWeather, © 2016

See weather overviewHow to use our weather pages